Blair, NE

6:47 PM CDT on April 23, 2017 (GMT -0500)
Blair Municipal

Weather History for KBTA - December, 2012

Change the Weather History Date:

Saturday, December 8, 2012

  Actual Average (KOMA) Record (KOMA)
Temperature  
Mean Temperature 35 °F -  
Max Temperature 39 °F 36 °F 68 °F (1946)
Min Temperature 31 °F 17 °F -13 °F (1917)
Degree Days  
Heating Degree Days 30    
Moisture  
Dew Point 29 °F    
Average Humidity 79    
Maximum Humidity 93    
Minimum Humidity 67    
Precipitation  
Precipitation 0.00 in - - ()
Sea Level Pressure  
Sea Level Pressure 29.92 in    
Wind  
Wind Speed 8 mph (ESE)    
Max Wind Speed 16 mph    
Max Gust Speed 18 mph    
Visibility 8 miles    
Events      
Averages and records for this station are not official NWS values.
T = Trace of Precipitation, MM = Missing Value Source: NWS Daily Summary

Daily Weather History Graph

Daily Weather History Graph

Search for Another Location

Airport or City:

Trip Planner

Search our weather history database for the weather conditions in past years. The results will help you decide how hot, cold, wet, or windy it might be!

Date:

Astronomy

Dec. 08, 2012 Rise Set
Actual Time 7:38 AM CST 4:54 PM CST
Civil Twilight 7:07 AM CST 5:25 PM CST
Nautical Twilight 6:32 AM CST 6:00 PM CST
Astronomical Twilight 5:58 AM CST 6:34 PM CST
Moon 2:01 AM CST (12/8) 1:28 PM CST (12/8)
Length of Visible Light 10h 18m
Length of Day
9h 16m
Waning Crescent, 28% of the Moon is Illuminated
Dec 8
Waning Crescent
Dec 13
New
Dec 19
First Quarter
Dec 28
Full
Jan 4
Last Quarter

Hourly Weather History & Observations

Time (CST) Temp. Windchill Dew Point Humidity Pressure Visibility Wind Dir Wind Speed Gust Speed Precip Events Conditions
12:15 AM 32.9 °F 25.3 °F 30.2 °F 90% 29.97 in 10.0 mi North 9.2 mph - N/A   Overcast
12:35 AM 32.9 °F 25.3 °F 30.2 °F 90% 29.97 in 10.0 mi North 9.2 mph - N/A   Overcast
12:55 AM 32.5 °F 24.8 °F 30.0 °F 90% 29.96 in 7.0 mi North 9.2 mph - N/A   Overcast
1:15 AM 32.4 °F 24.6 °F 30.0 °F 91% 29.97 in 7.0 mi North 9.2 mph - N/A   Overcast
1:35 AM 32.2 °F 24.4 °F 30.0 °F 92% 29.96 in 7.0 mi North 9.2 mph - N/A   Overcast
1:55 AM 32.0 °F 24.2 °F 30.0 °F 92% 29.96 in 7.0 mi North 9.2 mph - N/A   Overcast
2:15 AM 32.2 °F 25.0 °F 30.2 °F 92% 29.98 in 7.0 mi NNW 8.1 mph - N/A   Overcast
2:55 AM 32.2 °F 23.2 °F 30.0 °F 92% 29.97 in 7.0 mi North 11.5 mph - N/A   Overcast
3:15 AM 32.2 °F 24.4 °F 30.0 °F 92% 29.98 in 5.0 mi North 9.2 mph - N/A   Overcast
3:35 AM 32.2 °F 23.2 °F 30.0 °F 92% 29.97 in 5.0 mi North 11.5 mph - N/A   Overcast
3:55 AM 32.0 °F 23.0 °F 30.2 °F 93% 29.98 in 5.0 mi North 11.5 mph - N/A   Overcast
4:15 AM 32.0 °F 24.2 °F 29.3 °F 90% 29.97 in 5.0 mi North 9.2 mph - N/A   Overcast
4:35 AM 32.0 °F 24.2 °F 28.9 °F 88% 29.96 in 5.0 mi North 9.2 mph - N/A   Overcast
5:15 AM 32.0 °F 26.4 °F 29.1 °F 89% 29.97 in 4.0 mi NNW 5.8 mph - N/A   Overcast
5:35 AM 32.0 °F 28.7 °F 29.1 °F 89% 29.97 in 5.0 mi NNW 3.5 mph - N/A   Overcast
5:55 AM 31.8 °F 28.5 °F 28.9 °F 89% 29.98 in 4.0 mi NW 3.5 mph - N/A   Overcast
6:15 AM 31.8 °F 28.5 °F 28.8 °F 88% 29.98 in 5.0 mi NNE 3.5 mph - N/A   Overcast
6:35 AM 31.8 °F 28.5 °F 28.4 °F 87% 29.98 in 5.0 mi North 3.5 mph - N/A   Overcast
6:55 AM 31.8 °F 28.5 °F 28.4 °F 87% 29.97 in 5.0 mi NNE 3.5 mph - N/A   Overcast
7:15 AM 31.6 °F - 28.4 °F 88% 29.97 in 5.0 mi Calm Calm - N/A   Overcast
7:35 AM 31.6 °F - 28.8 °F 89% 29.97 in 5.0 mi Calm Calm - N/A   Overcast
7:55 AM 31.8 °F - 28.4 °F 87% 29.98 in 4.0 mi Calm Calm - N/A   Overcast
8:15 AM 32.0 °F - 28.2 °F 86% 29.97 in 5.0 mi Calm Calm - N/A   Overcast
8:35 AM 32.0 °F 28.7 °F 28.4 °F 87% 29.98 in 5.0 mi ESE 3.5 mph - N/A   Overcast
8:55 AM 32.0 °F - 28.0 °F 85% 29.99 in 5.0 mi Calm Calm - N/A   Overcast
9:15 AM 32.2 °F - 27.9 °F 84% 29.99 in 7.0 mi Calm Calm - N/A   Overcast
9:35 AM 32.5 °F 29.3 °F 27.5 °F 82% 29.98 in 7.0 mi ESE 3.5 mph - N/A   Overcast
9:55 AM 32.9 °F 29.8 °F 27.5 °F 81% 29.98 in 7.0 mi East 3.5 mph - N/A   Overcast
10:15 AM 33.1 °F 30.0 °F 27.7 °F 81% 29.99 in 7.0 mi ESE 3.5 mph - N/A   Overcast
10:35 AM 33.3 °F 30.2 °F 27.9 °F 81% 29.99 in 7.0 mi SSE 3.5 mph - N/A   Overcast
10:55 AM 34.2 °F 29.0 °F 28.0 °F 78% 29.98 in 7.0 mi SSE 5.8 mph - N/A   Overcast
11:15 AM 34.5 °F 31.6 °F 28.2 °F 78% 29.98 in 5.0 mi SE 3.5 mph - N/A   Haze
11:35 AM 35.6 °F 31.7 °F 28.2 °F 75% 29.97 in 7.0 mi SSE 4.6 mph - N/A   Clear
11:55 AM 35.2 °F 30.3 °F 27.5 °F 73% 29.96 in 7.0 mi SE 5.8 mph - N/A   Scattered Clouds
12:15 PM 36.0 °F 30.3 °F 27.9 °F 72% 29.96 in 7.0 mi SSE 6.9 mph - N/A   Clear
12:35 PM 36.0 °F 32.1 °F 27.7 °F 72% 29.94 in 7.0 mi SE 4.6 mph - N/A   Clear
12:55 PM 36.5 °F 31.0 °F 27.7 °F 70% 29.92 in 7.0 mi SE 6.9 mph - N/A   Clear
1:15 PM 36.9 °F 31.4 °F 27.3 °F 68% 29.91 in 10.0 mi SE 6.9 mph - N/A   Clear
1:35 PM 36.9 °F 30.1 °F 27.5 °F 69% 29.90 in 7.0 mi ESE 9.2 mph - N/A   Scattered Clouds
1:55 PM 36.9 °F 30.1 °F 27.5 °F 69% 29.89 in 10.0 mi ESE 9.2 mph - N/A   Mostly Cloudy
2:15 PM 36.9 °F 30.1 °F 27.5 °F 69% 29.89 in 10.0 mi SE 9.2 mph - N/A   Mostly Cloudy
2:35 PM 37.8 °F 30.7 °F 28.0 °F 68% 29.89 in 10.0 mi SE 10.4 mph - N/A   Scattered Clouds
2:55 PM 37.6 °F 30.5 °F 28.0 °F 68% 29.88 in 10.0 mi SE 10.4 mph - N/A   Mostly Cloudy
3:15 PM 38.3 °F 32.5 °F 28.6 °F 68% 29.87 in 10.0 mi ESE 8.1 mph - N/A   Overcast
3:35 PM 38.3 °F 31.4 °F 28.9 °F 69% 29.87 in 10.0 mi SE 10.4 mph - N/A   Overcast
3:55 PM 38.3 °F 31.9 °F 29.1 °F 70% 29.86 in 10.0 mi SE 9.2 mph - N/A   Overcast
4:15 PM 38.3 °F 32.5 °F 29.3 °F 70% 29.86 in 7.0 mi ESE 8.1 mph - N/A   Overcast
4:35 PM 38.3 °F 33.2 °F 28.9 °F 69% 29.86 in 10.0 mi SE 6.9 mph - N/A   Scattered Clouds
4:55 PM 38.3 °F 33.9 °F 28.9 °F 69% 29.86 in 10.0 mi SE 5.8 mph - N/A   Mostly Cloudy
5:15 PM 38.3 °F 32.5 °F 28.9 °F 69% 29.86 in 10.0 mi SE 8.1 mph - N/A   Overcast
5:35 PM 38.7 °F 34.3 °F 28.9 °F 68% 29.87 in 10.0 mi ESE 5.8 mph - N/A   Overcast
5:55 PM 38.5 °F 32.7 °F 28.9 °F 69% 29.86 in 10.0 mi ESE 8.1 mph - N/A   Overcast
6:15 PM 38.8 °F 33.2 °F 28.8 °F 67% 29.87 in 10.0 mi SE 8.1 mph - N/A   Overcast
6:35 PM 38.7 °F 32.9 °F 28.9 °F 68% 29.87 in 10.0 mi SE 8.1 mph - N/A   Overcast
7:15 PM 39.0 °F 32.3 °F 28.8 °F 67% 29.88 in 10.0 mi SE 10.4 mph - N/A   Overcast
7:35 PM 39.0 °F 32.3 °F 28.8 °F 67% 29.87 in 10.0 mi SE 10.4 mph - N/A   Overcast
7:55 PM 38.8 °F 31.6 °F 28.9 °F 68% 29.86 in 10.0 mi SE 11.5 mph - N/A   Overcast
8:15 PM 39.0 °F 31.4 °F 29.3 °F 68% 29.85 in 10.0 mi SE 12.7 mph - N/A   Overcast
8:55 PM 38.8 °F 32.1 °F 30.2 °F 71% 29.86 in 10.0 mi SSE 10.4 mph - N/A   Overcast
9:15 PM 38.7 °F 31.8 °F 30.6 °F 73% 29.87 in 10.0 mi SSE 10.4 mph - N/A   Overcast
9:35 PM 38.5 °F 32.1 °F 30.9 °F 74% 29.88 in 10.0 mi SSE 9.2 mph - N/A   Overcast
9:55 PM 38.5 °F 31.1 °F 31.5 °F 76% 29.87 in 10.0 mi SSE 11.5 mph - N/A   Overcast
10:15 PM 38.3 °F 31.9 °F 32.0 °F 78% 29.88 in 10.0 mi SSE 9.2 mph - N/A   Overcast
10:35 PM 38.3 °F 31.4 °F 32.0 °F 78% 29.87 in 10.0 mi SSE 10.4 mph - N/A   Overcast
10:55 PM 38.3 °F 30.9 °F 32.2 °F 79% 29.85 in 7.0 mi SE 11.5 mph - N/A   Overcast
11:15 PM 37.4 °F 29.8 °F 32.0 °F 81% 29.84 in 7.0 mi SE 11.5 mph 18.4 mph N/A   Scattered Clouds
11:35 PM 36.9 °F 27.5 °F 32.0 °F 83% 29.83 in 7.0 mi SE 16.1 mph - N/A   Scattered Clouds
11:55 PM 37.0 °F 30.4 °F 32.0 °F 82% 29.84 in 7.0 mi SSE 9.2 mph 16.1 mph N/A   Mostly Cloudy